This is the latest recevied weather packets stored in our database for station/object DB0LHR-6. If no packets are shown the sender has not sent any weather packets the latest 10 day(s).
| Time | Temp. | Humidity | Pressure | Rain* | Wind** | Luminosity | Snow |
|---|---|---|---|---|---|---|---|
| 1777902375 | 20° C | 33% | 1013 hPa | 0 mm | - | - | - |
| 1777901475 | 20° C | 33% | 1013 hPa | 0 mm | - | - | - |
| 1777900575 | 20.56° C | 32% | 1013 hPa | 0 mm | - | - | - |
| 1777899675 | 20.56° C | 32% | 1013 hPa | 0 mm | - | - | - |
| 1777898775 | 20.56° C | 33% | 1013 hPa | 0 mm | - | - | - |
| 1777897875 | 21.11° C | 33% | 1013 hPa | 0 mm | - | - | - |
| 1777896975 | 22.22° C | 30% | 1013 hPa | 0 mm | - | - | - |
| 1777896075 | 22.22° C | 31% | 1013 hPa | 0 mm | - | - | - |
| 1777895175 | 21.67° C | 31% | 1013 hPa | 0 mm | - | - | - |
| 1777894275 | 21.67° C | 27% | 1013 hPa | 0 mm | - | - | - |
| 1777893375 | 22.22° C | 24% | 1014 hPa | 0 mm | - | - | - |
| 1777892475 | 23.33° C | 25% | 1014 hPa | 0 mm | - | - | - |
| 1777891575 | 22.78° C | 24% | 1014 hPa | 0 mm | - | - | - |
| 1777890675 | 22.78° C | 26% | 1014 hPa | 0 mm | - | - | - |
| 1777889775 | 22.22° C | 26% | 1014 hPa | 0 mm | - | - | - |
| 1777888875 | 22.22° C | 31% | 1014 hPa | 0 mm | - | - | - |
| 1777887975 | 21.67° C | 32% | 1014 hPa | 0 mm | - | - | - |
| 1777887075 | 21.67° C | 32% | 1014 hPa | 0 mm | - | - | - |
| 1777886175 | 21.11° C | 33% | 1014 hPa | 0 mm | - | - | - |
| 1777885275 | 20.56° C | 34% | 1014 hPa | 0 mm | - | - | - |
| 1777884375 | 19.44° C | 37% | 1014 hPa | 0 mm | - | - | - |
| 1777883475 | 19.44° C | 36% | 1014 hPa | 0 mm | - | - | - |
| 1777882575 | 18.33° C | 45% | 1014 hPa | 0 mm | - | - | - |
| 1777881675 | 17.78° C | 44% | 1014 hPa | 0 mm | - | - | - |
| 1777880775 | 17.22° C | 45% | 1014 hPa | 0 mm | - | - | - |
* Rain latest 24 hours (hover to see other rain measurements)
** Current wind speed in m/s (hover to see current wind gust speed)